Вернуться в каталог

ICEYE-X77

АктивенНаукаSSO
NORAD 69892·PAYLOAD·🇩🇪 Germany

Запущен Jul 7, 2026 с Vandenberg Space Force Base

Loading…

Ближайшие Пролёты (ближайшие 24 часа)

TLE

СвежийSource: Space-Track

Эпоха: Sep 14, 2026, 03:39 UTC

1 69892U 26156Z   26257.15209963  .00001180  00000-0  12176-3 0  9991
2 69892  97.7449 156.4726 0005947 293.7069  66.3526 14.92056371 10263

Отслеживайте ICEYE-X77 в реальном времени с AllMySat

Download on the App Store